QPF
0.00 0.00 0.00 0.00 0.00 0.00 0.00 0.00 0.00 0.00 0.00 0.00 0.00 0.00 0.00 0.00 0.00 0.00 0.00 0.00 0.00 0.00 0.00 0.00 0.00 0.00 0.00 0.00 0.00 0.00 0.00 0.00 0.00 0.00 0.00 0.00 0.00 0.00 0.00 0.00 0.00 0.00 0.00
0.00 0.00 0.00 0.00 0.00 0.00 0.00 0.00 0.00 0.00 0.00 0.00 0.00 0.00 0.00 0.00 0.00 0.00 0.00 0.00 0.00 0.00 0.00 0.00 0.00 0.00 0.00 0.00 0.00 0.00 0.00 0.00 0.00 0.00 0.00 0.00 0.00 0.00 0.00 0.00 0.00 0.00 0.00
0.00 0.01 0.00 0.00 0.00 0.00 0.00 0.00 0.00 0.00 0.00 0.00 0.00 0.00 0.00 0.00 0.00 0.00 0.00 0.00 0.00 0.00 0.00 0.00 0.00 0.00 0.00 0.00 0.00 0.00 0.00 0.00 0.00 0.00 0.00 0.00 0.00 0.00 0.00 0.00 0.00 0.00 0.00
0.01 0.01 0.00 0.01 0.00 0.00 0.00 0.00 0.00 0.00 0.00 0.00 0.00 0.00 0.00 0.00 0.00 0.00 0.00 0.00 0.00 0.00 0.00 0.00 0.00 0.00 0.00 0.00 0.00 0.00 0.00 0.00 0.00 0.00 0.00 0.00 0.00 0.00 0.00 0.00 0.00 0.00 0.00
0.03 0.00 0.02 0.03 0.00 0.00 0.00 0.00 0.00 0.00 0.00 0.00 0.00 0.00 0.00 0.00 0.00 0.00 0.00 0.00 0.00 0.00 0.00 0.00 0.00 0.00 0.00 0.00 0.00 0.00 0.00 0.00 0.00 0.00 0.00 0.00 0.00 0.00 0.00 0.00 0.00 0.00 0.00
0.08 0.01 0.05 0.12 0.00 0.00 0.00 0.00 0.00 0.00 0.00 0.00 0.00 0.00 0.00 0.00 0.00 0.00 0.00 0.00 0.00 0.00 0.00 0.00 0.00 0.00 0.00 0.00 0.00 0.00 0.00 0.00 0.00 0.00 0.00 0.00 0.00 0.00 0.00 0.00 0.00 0.00 0.00
0.09 0.21 0.23 0.20 0.02 0.00 0.00 0.00 0.00 0.00 0.00 0.00 0.00 0.00 0.00 0.00 0.00 0.00 0.00 0.00 0.00 0.00 0.00 0.00 0.00 0.00 0.00 0.00 0.00 0.00 0.00 0.00 0.00 0.00 0.00 0.00 0.00 0.00 0.00 0.00 0.00 0.00 0.00
0.21 0.33 0.25 0.21 0.18 0.05 0.00 0.00 0.00 0.00 0.00 0.00 0.00 0.00 0.00 0.00 0.00 0.00 0.00 0.00 0.00 0.00 0.00 0.00 0.00 0.00 0.00 0.00 0.00 0.00 0.00 0.00 0.00 0.00 0.00 0.00 0.00 0.00 0.00 0.00 0.00 0.00 0.00
0.12 0.21 0.16 0.12 0.13 0.10 0.00 0.00 0.00 0.00 0.00 0.00 0.00 0.00 0.00 0.00 0.00 0.00 0.00 0.00 0.00 0.00 0.00 0.00 0.00 0.00 0.00 0.00 0.00 0.00 0.00 0.00 0.00 0.00 0.00 0.00 0.00 0.00 0.00 0.00 0.00 0.00 0.00
0.03 0.12 0.07 0.02 0.04 0.06 0.00 0.00 0.00 0.00 0.00 0.00 0.00 0.00 0.00 0.00 0.00 0.00 0.00 0.00 0.00 0.00 0.00 0.00 0.00 0.00 0.00 0.00 0.00 0.00 0.00 0.00 0.00 0.00 0.00 0.00 0.00 0.00 0.00 0.00 0.00 0.00 0.00
0.02 0.03 0.02 0.01 0.02 0.02 0.00 0.00 0.00 0.00 0.00 0.00 0.00 0.00 0.00 0.00 0.00 0.00 0.00 0.00 0.00 0.00 0.00 0.00 0.00 0.00 0.00 0.00 0.00 0.00 0.00 0.00 0.00 0.00 0.00 0.00 0.00 0.00 0.00 0.00 0.00 0.00 0.00
0.00 0.00 0.00 0.00 0.00 0.00 0.00 0.00 0.00 0.00 0.00 0.00 0.00 0.00 0.00 0.00 0.00 0.00 0.00 0.00 0.00 0.00 0.00 0.00 0.00 0.00 0.00 0.00 0.00 0.00 0.00 0.00 0.00 0.00 0.00 0.00 0.00 0.00 0.00 0.00 0.00 0.00 0.00
0.00 0.00 0.00 0.02 0.00 0.00 0.00 0.00 0.00 0.00 0.00 0.00 0.00 0.00 0.00 0.00 0.00 0.00 0.00 0.00 0.00 0.00 0.00 0.00 0.00 0.00 0.00 0.00 0.00 0.00 0.00 0.00 0.00 0.00 0.00 0.00 0.00 0.00 0.00 0.00 0.00 0.00 0.00
0.00 0.00 0.00 0.02 0.02 0.00 0.00 0.00 0.00 0.00 0.00 0.00 0.00 0.00 0.00 0.00 0.00 0.00 0.00 0.00 0.00 0.00 0.00 0.00 0.00 0.00 0.00 0.00 0.00 0.00 0.00 0.00 0.00 0.00 0.00 0.00 0.00 0.00 0.00 0.00 0.00 0.00 0.00
0.00 0.00 0.00 0.00 0.00 0.00 0.00 0.00 0.00 0.00 0.00 0.00 0.00 0.00 0.00 0.00 0.00 0.00 0.00 0.00 0.00 0.00 0.00 0.00 0.00 0.00 0.00 0.00 0.00 0.00 0.00 0.00 0.00 0.00 0.00 0.00 0.00 0.00 0.00 0.01 0.00 0.00 0.00
0.00 0.00 0.00 0.00 0.00 0.00 0.00 0.00 0.00 0.00 0.00 0.00 0.00 0.00 0.00 0.00 0.00 0.00 0.00 0.00 0.00 0.00 0.00 0.00 0.00 0.00 0.00 0.00 0.00 0.00 0.00 0.00 0.00 0.00 0.00 0.00 0.00 0.00 0.00 0.00 0.00 0.00 0.00
0.00 0.00 0.00 0.00 0.00 0.00 0.00 0.00 0.00 0.00 0.00 0.00 0.00 0.00 0.00 0.00 0.00 0.00 0.00 0.00 0.00 0.00 0.00 0.00 0.00 0.00 0.00 0.00 0.00 0.00 0.00 0.00 0.00 0.00 0.00 0.00 0.00 0.00 0.00 0.00 0.00 0.00 0.00
0.00 0.00 0.00 0.00 0.00 0.00 0.00 0.00 0.00 0.00 0.01 0.00 0.00 0.00 0.00 0.00 0.00 0.00 0.00 0.00 0.00 0.00 0.00 0.00 0.00 0.00 0.00 0.00 0.00 0.00 0.00 0.00 0.00 0.00 0.00 0.00 0.00 0.00 0.00 0.00 0.00 0.00 0.00
0.00 0.00 0.00 0.00 0.00 0.00 0.00 0.00 0.00 0.01 0.02 0.01 0.00 0.00 0.00 0.00 0.00 0.00 0.00 0.00 0.00 0.00 0.00 0.00 0.00 0.00 0.00 0.00 0.00 0.00 0.00 0.00 0.00 0.00 0.00 0.00 0.00 0.00 0.00 0.00 0.00 0.00 0.00
0.00 0.00 0.00 0.00 0.00 0.00 0.00 0.00 0.00 0.01 0.03 0.00 0.00 0.00 0.00 0.00 0.00 0.00 0.00 0.00 0.00 0.00 0.00 0.00 0.00 0.00 0.00 0.00 0.00 0.00 0.00 0.00 0.00 0.00 0.00 0.00 0.00 0.00 0.00 0.00 0.00 0.00 0.00
0.00 0.00 0.00 0.00 0.00 0.00 0.00 0.00 0.01 0.02 0.01 0.00 0.00 0.00 0.00 0.00 0.00 0.00 0.00 0.00 0.00 0.00 0.00 0.00 0.00 0.00 0.00 0.00 0.00 0.00 0.00 0.00 0.00 0.00 0.00 0.00 0.00 0.00 0.00 0.00 0.00 0.00 0.00
0.00 0.00 0.00 0.00 0.00 0.00 0.00 0.00 0.00 0.00 0.00 0.00 0.00 0.00 0.00 0.00 0.00 0.00 0.00 0.00 0.00 0.00 0.00 0.00 0.00 0.00 0.00 0.00 0.00 0.00 0.00 0.00 0.00 0.00 0.00 0.00 0.00 0.00 0.00 0.00 0.00 0.00 0.00
0.00 0.00 0.00 0.00 0.00 0.00 0.00 0.00 0.00 0.01 0.01 0.00 0.00 0.00 0.00 0.00 0.00 0.00 0.00 0.00 0.00 0.00 0.00 0.00 0.00 0.00 0.00 0.00 0.00 0.00 0.00 0.00 0.00 0.00 0.00 0.00 0.00 0.00 0.00 0.00 0.00 0.00 0.00
0.00 0.00 0.00 0.00 0.00 0.01 0.00 0.00 0.00 0.02 0.05 0.02 0.00 0.00 0.00 0.00 0.00 0.00 0.00 0.00 0.00 0.00 0.00 0.00 0.00 0.00 0.00 0.00 0.00 0.00 0.00 0.00 0.00 0.00 0.00 0.00 0.00 0.00 0.00 0.00 0.00 0.00 0.00
0.00 0.00 0.01 0.02 0.02 0.01 0.01 0.02 0.05 0.10 0.11 0.03 0.00 0.00 0.00 0.00 0.00 0.00 0.00 0.00 0.00 0.00 0.00 0.00 0.00 0.00 0.00 0.00 0.00 0.00 0.00 0.00 0.00 0.00 0.00 0.00 0.00 0.00 0.00 0.00 0.00 0.00 0.00
0.00 0.01 0.18 0.04 0.03 0.06 0.06 0.07 0.10 0.10 0.08 0.02 0.01 0.00 0.00 0.00 0.00 0.00 0.00 0.00 0.00 0.00 0.00 0.00 0.00 0.00 0.00 0.00 0.00 0.00 0.00 0.00 0.00 0.00 0.00 0.00 0.00 0.00 0.00 0.00 0.00 0.00 0.00
MSLP
1013.92 1014.33 1014.73 1014.91 1015.13 1015.50 1015.79 1016.05 1016.39 1016.85 1016.99 1017.16 1017.56 1017.94 1018.25 1018.38 1018.65 1018.77 1019.00 1018.86 1019.02 1019.14 1019.35 1019.44 1019.54 1019.74 1019.74 1020.03 1020.17 1020.39 1020.52 1020.66 1020.92 1020.82 1020.80 1020.77 1020.81 1020.79 1020.71 1020.75 1020.52 1020.39 1020.33
1013.14 1013.93 1014.56 1015.00 1015.08 1015.39 1015.75 1015.97 1016.23 1016.80 1017.25 1017.41 1017.82 1018.36 1018.72 1018.66 1019.04 1018.96 1019.22 1019.48 1019.40 1019.50 1019.49 1019.69 1019.73 1019.76 1020.04 1020.28 1020.57 1020.80 1020.98 1021.07 1021.24 1021.35 1021.35 1021.30 1021.15 1021.22 1021.26 1021.11 1020.78 1020.91 1020.84
1013.70 1014.02 1014.64 1015.04 1015.09 1015.33 1015.71 1016.04 1016.30 1016.45 1017.19 1017.76 1018.32 1018.73 1018.88 1019.05 1019.50 1019.39 1019.54 1019.87 1019.92 1019.82 1019.99 1019.81 1019.92 1020.18 1020.49 1020.48 1020.85 1020.96 1021.15 1021.39 1021.59 1021.63 1021.76 1021.92 1021.74 1021.56 1021.66 1021.39 1021.38 1021.27 1021.25
1013.84 1014.46 1014.75 1015.12 1015.26 1015.53 1015.96 1016.37 1016.58 1016.74 1017.14 1017.82 1018.37 1018.84 1019.14 1019.37 1019.65 1019.89 1020.03 1020.26 1020.23 1020.45 1020.47 1020.23 1020.46 1020.54 1020.81 1020.83 1021.10 1021.25 1021.48 1021.71 1021.87 1022.02 1022.14 1022.15 1022.09 1021.97 1021.86 1021.69 1021.59 1021.77 1021.77
1014.27 1014.77 1015.04 1015.28 1015.58 1015.77 1016.15 1016.49 1016.91 1016.97 1017.52 1018.12 1018.65 1019.01 1019.50 1019.69 1019.78 1020.14 1020.31 1020.61 1020.67 1020.62 1020.75 1020.67 1020.70 1020.96 1020.95 1021.08 1021.30 1021.58 1021.88 1022.13 1022.25 1022.22 1022.39 1022.42 1022.28 1022.16 1022.15 1022.08 1022.07 1021.95 1021.91
1014.68 1015.01 1015.27 1015.60 1015.92 1016.12 1016.30 1016.40 1017.38 1017.22 1017.87 1018.58 1018.83 1019.32 1019.87 1019.99 1020.14 1020.24 1020.36 1020.67 1021.03 1020.91 1021.38 1020.96 1021.28 1021.39 1021.34 1021.57 1021.64 1022.00 1022.27 1022.46 1022.59 1022.84 1022.77 1022.62 1022.46 1022.32 1022.21 1022.33 1022.27 1022.26 1022.12
1015.01 1015.19 1015.43 1015.73 1016.01 1016.29 1016.84 1016.91 1017.79 1017.61 1018.34 1018.76 1019.18 1019.68 1020.13 1020.29 1020.53 1020.83 1020.74 1021.05 1021.24 1021.58 1021.67 1021.60 1021.72 1021.68 1021.72 1021.86 1022.02 1022.23 1022.54 1022.88 1023.02 1023.00 1023.03 1022.94 1022.75 1022.70 1022.55 1022.72 1022.80 1022.56 1022.32
1015.30 1015.57 1015.84 1015.84 1016.54 1016.63 1017.79 1017.47 1018.14 1018.39 1018.95 1018.99 1019.60 1020.00 1020.41 1020.66 1020.95 1021.04 1021.23 1021.38 1021.60 1021.65 1021.89 1021.96 1021.90 1021.93 1022.10 1022.02 1022.18 1022.46 1022.73 1022.96 1023.10 1023.39 1023.34 1023.27 1022.96 1022.99 1023.09 1023.17 1023.11 1023.01 1022.87
1015.84 1016.13 1016.46 1016.52 1016.89 1018.06 1018.02 1018.55 1018.49 1019.01 1019.04 1019.52 1019.95 1020.35 1020.66 1020.83 1021.09 1021.26 1021.47 1021.53 1021.89 1021.98 1021.99 1021.89 1022.11 1022.01 1022.17 1022.37 1022.70 1022.86 1023.06 1023.27 1023.52 1023.59 1023.36 1023.40 1023.04 1023.26 1023.62 1023.49 1023.44 1023.49 1023.46
1016.50 1016.88 1016.91 1017.00 1017.55 1018.37 1018.40 1019.07 1019.25 1019.20 1019.15 1019.67 1020.32 1020.58 1020.85 1021.13 1021.36 1021.42 1021.90 1021.96 1022.21 1022.23 1022.23 1022.34 1022.57 1022.59 1022.65 1022.65 1022.94 1023.29 1023.49 1023.66 1023.86 1024.02 1023.87 1023.65 1023.53 1023.42 1023.74 1023.72 1023.68 1023.85 1023.72
1017.26 1017.50 1017.78 1018.21 1018.89 1019.15 1019.19 1019.72 1019.64 1019.52 1019.60 1019.91 1020.60 1021.02 1021.14 1021.45 1021.63 1021.80 1022.14 1022.26 1022.42 1022.44 1022.47 1022.74 1022.92 1023.18 1023.17 1023.26 1023.43 1023.70 1023.92 1024.19 1024.36 1024.36 1024.46 1023.88 1023.89 1023.73 1023.90 1024.04 1024.09 1024.16 1024.10
1017.80 1018.25 1018.57 1018.95 1019.38 1019.57 1019.76 1019.73 1019.53 1019.61 1020.08 1020.54 1021.08 1021.38 1021.51 1021.63 1021.81 1022.10 1022.30 1022.34 1022.46 1022.76 1023.06 1023.17 1023.30 1023.58 1023.69 1023.96 1024.04 1024.22 1024.60 1024.58 1024.59 1024.64 1024.67 1024.21 1023.97 1023.99 1024.11 1024.41 1024.47 1024.41 1024.48
1017.90 1018.34 1018.70 1019.42 1019.68 1019.66 1019.87 1020.24 1020.45 1020.45 1020.85 1021.06 1021.37 1021.58 1021.78 1021.89 1022.19 1022.33 1022.62 1022.83 1023.02 1023.17 1023.55 1023.52 1023.85 1024.21 1024.29 1024.46 1024.51 1024.70 1024.79 1024.83 1025.10 1025.09 1024.80 1024.41 1024.23 1024.33 1024.24 1024.41 1024.69 1024.77 1024.73
1018.65 1018.72 1019.07 1019.40 1019.82 1019.99 1020.04 1020.30 1020.44 1020.72 1020.73 1021.21 1021.77 1021.65 1021.85 1022.20 1022.42 1022.67 1023.04 1023.37 1023.64 1023.88 1024.13 1024.36 1024.57 1024.64 1024.74 1024.87 1024.73 1025.20 1025.22 1025.18 1025.02 1025.30 1025.22 1024.81 1024.63 1024.42 1024.31 1024.53 1024.83 1025.00 1025.01
1018.43 1018.64 1019.25 1019.55 1019.68 1019.96 1020.17 1020.61 1020.93 1021.07 1021.10 1021.37 1021.63 1021.99 1021.78 1022.33 1022.82 1023.26 1023.47 1023.67 1023.97 1024.36 1024.60 1024.86 1025.06 1024.99 1025.35 1025.38 1025.31 1025.56 1025.61 1025.52 1025.33 1025.33 1025.38 1025.08 1025.02 1024.73 1024.41 1024.61 1024.89 1025.05 1025.33
1018.68 1019.06 1019.25 1019.37 1019.62 1020.00 1020.37 1020.75 1020.76 1021.23 1021.22 1021.36 1021.90 1022.27 1022.14 1022.70 1023.03 1023.34 1023.80 1024.14 1024.35 1024.62 1025.04 1025.21 1025.39 1025.38 1025.82 1025.61 1025.76 1025.87 1026.08 1025.96 1025.70 1025.54 1025.54 1025.43 1025.31 1024.91 1024.62 1024.74 1024.97 1025.12 1025.42
1018.59 1019.10 1019.27 1019.47 1019.61 1019.99 1020.52 1020.84 1020.94 1021.37 1021.40 1021.65 1022.06 1022.27 1022.43 1022.82 1023.24 1023.48 1023.96 1024.59 1024.82 1025.01 1025.15 1025.42 1025.52 1025.65 1025.86 1025.95 1026.30 1026.40 1026.47 1026.28 1026.03 1025.92 1025.83 1025.78 1025.62 1025.28 1025.03 1025.08 1025.25 1025.41 1025.53
1018.43 1018.64 1018.86 1019.02 1019.53 1020.02 1020.46 1020.73 1020.99 1021.35 1021.54 1021.95 1022.14 1022.40 1022.58 1022.78 1023.14 1023.72 1024.26 1024.83 1025.14 1025.25 1025.25 1025.61 1025.85 1026.16 1026.32 1026.49 1026.79 1026.95 1026.79 1026.46 1026.27 1026.30 1026.21 1026.04 1025.89 1025.81 1025.72 1025.63 1025.71 1025.86 1025.93
1017.90 1018.23 1018.68 1019.15 1019.51 1020.16 1020.57 1020.97 1021.25 1021.52 1021.90 1022.02 1022.21 1022.50 1022.70 1022.83 1023.47 1023.91 1024.59 1025.06 1025.35 1025.54 1025.54 1025.83 1026.65 1026.38 1026.83 1027.08 1027.12 1027.28 1027.15 1027.06 1026.98 1026.81 1026.64 1026.46 1026.37 1026.33 1026.33 1026.28 1026.40 1026.38 1026.26
1017.85 1018.28 1018.66 1019.12 1019.57 1020.08 1020.46 1021.12 1021.68 1021.83 1021.91 1022.03 1022.32 1022.38 1022.87 1023.27 1023.77 1024.24 1024.86 1025.43 1025.53 1025.63 1026.02 1026.54 1026.77 1027.00 1027.24 1027.22 1027.25 1027.47 1027.64 1027.72 1027.61 1027.47 1027.25 1026.90 1026.87 1026.90 1026.92 1026.91 1026.93 1026.86 1026.68
1017.61 1017.90 1018.25 1018.82 1019.17 1019.64 1020.25 1021.12 1021.85 1021.79 1022.05 1022.50 1022.50 1022.73 1023.19 1023.47 1023.98 1024.60 1025.05 1025.55 1025.69 1026.08 1026.54 1026.75 1027.18 1027.48 1027.62 1027.34 1027.46 1027.95 1028.03 1027.98 1027.99 1027.99 1027.75 1027.58 1027.41 1027.45 1027.35 1027.31 1027.31 1027.27 1027.14
1016.83 1017.26 1017.77 1018.32 1018.92 1019.47 1019.78 1020.35 1020.82 1021.69 1022.23 1022.25 1022.56 1022.94 1023.27 1023.78 1024.33 1024.76 1025.05 1025.60 1025.85 1026.31 1026.94 1027.11 1026.95 1027.18 1027.66 1027.70 1027.88 1028.18 1028.47 1028.31 1028.19 1028.09 1027.93 1027.81 1027.92 1027.76 1027.60 1027.42 1027.36 1027.38 1027.43
1016.28 1016.56 1017.04 1017.59 1018.29 1018.96 1019.65 1020.20 1020.83 1021.51 1022.08 1022.61 1022.95 1023.26 1023.66 1023.91 1024.33 1024.69 1025.17 1025.71 1026.24 1026.73 1027.11 1027.07 1026.68 1026.50 1027.36 1027.95 1027.95 1028.13 1028.76 1028.96 1028.78 1028.38 1028.26 1028.15 1028.15 1028.02 1027.96 1027.73 1027.63 1027.55 1027.58
1015.81 1016.34 1016.75 1017.04 1017.60 1018.38 1019.01 1019.66 1020.12 1020.67 1021.68 1022.38 1022.84 1023.58 1024.07 1024.13 1024.47 1024.95 1025.41 1025.84 1026.16 1026.42 1026.77 1026.58 1026.54 1026.88 1026.98 1027.97 1028.18 1028.08 1028.30 1028.67 1029.02 1029.07 1028.60 1028.35 1028.20 1028.02 1027.78 1027.71 1027.68 1027.68 1027.71
1015.06 1015.59 1016.60 1017.62 1017.95 1018.48 1018.50 1019.08 1019.83 1020.79 1021.37 1022.21 1023.10 1023.82 1024.26 1024.46 1024.60 1025.04 1025.42 1025.71 1026.00 1025.96 1026.13 1025.90 1026.42 1026.91 1027.35 1027.91 1028.29 1028.34 1028.52 1028.82 1029.04 1029.40 1029.20 1028.75 1028.33 1027.96 1027.77 1027.78 1027.81 1027.80 1027.79
1014.78 1015.52 1016.61 1017.08 1017.47 1018.06 1018.39 1018.87 1019.61 1020.55 1021.55 1022.44 1023.28 1023.82 1024.22 1024.43 1024.85 1025.25 1025.46 1025.56 1025.46 1025.34 1025.66 1025.93 1026.52 1026.90 1027.39 1027.71 1028.10 1028.31 1028.52 1028.75 1028.89 1029.16 1029.37 1029.04 1028.89 1028.24 1027.83 1027.67 1027.82 1027.94 1027.87
Thickness
5710 5708 5707 5706 5705 5703 5701 5699 5697 5693 5693 5691 5689 5685 5682 5681 5679 5678 5677 5679 5678 5678 5676 5675 5673 5670 5670 5665 5664 5661 5659 5658 5654 5654 5653 5653 5652 5651 5652 5650 5651 5652 5651
5715 5708 5703 5701 5701 5700 5698 5697 5694 5689 5687 5686 5684 5679 5674 5676 5671 5673 5671 5670 5672 5672 5673 5671 5670 5670 5665 5663 5659 5656 5654 5652 5650 5648 5647 5646 5647 5646 5645 5646 5649 5646 5645
5705 5704 5699 5695 5695 5694 5692 5691 5690 5690 5683 5679 5674 5671 5668 5668 5663 5665 5665 5663 5664 5667 5667 5669 5667 5662 5659 5659 5655 5653 5651 5647 5645 5644 5642 5639 5639 5639 5638 5641 5640 5640 5639
5698 5695 5694 5690 5689 5687 5685 5682 5682 5682 5679 5673 5669 5665 5663 5662 5659 5657 5656 5656 5659 5658 5659 5661 5658 5658 5655 5654 5650 5648 5645 5642 5640 5638 5637 5635 5632 5632 5633 5635 5635 5632 5632
5688 5686 5685 5684 5682 5681 5679 5678 5674 5675 5671 5666 5662 5660 5656 5656 5655 5652 5651 5650 5652 5654 5653 5655 5655 5653 5653 5650 5647 5643 5639 5635 5634 5634 5631 5629 5629 5628 5628 5629 5628 5628 5628
5680 5678 5677 5674 5673 5672 5671 5673 5666 5668 5663 5658 5657 5653 5649 5649 5648 5649 5649 5648 5646 5649 5644 5650 5648 5647 5647 5643 5642 5637 5633 5630 5628 5624 5624 5623 5624 5624 5625 5622 5622 5621 5622
5672 5671 5670 5668 5665 5663 5659 5662 5656 5659 5653 5652 5649 5646 5643 5642 5641 5640 5644 5642 5640 5637 5640 5642 5639 5639 5639 5637 5635 5632 5628 5622 5621 5620 5618 5617 5616 5615 5617 5614 5612 5614 5616
5667 5663 5660 5662 5654 5652 5643 5652 5648 5646 5643 5644 5640 5639 5637 5637 5636 5637 5638 5638 5636 5636 5635 5636 5635 5634 5631 5633 5630 5626 5621 5618 5616 5612 5611 5610 5610 5608 5606 5605 5604 5604 5604
5658 5655 5651 5648 5648 5633 5637 5636 5639 5636 5638 5635 5633 5633 5633 5633 5635 5636 5636 5635 5633 5633 5632 5633 5631 5631 5629 5625 5620 5618 5615 5611 5609 5607 5608 5606 5605 5600 5594 5595 5595 5593 5592
5651 5646 5647 5639 5625 5623 5628 5626 5627 5630 5634 5632 5628 5628 5630 5632 5632 5632 5630 5630 5628 5627 5627 5624 5622 5623 5622 5621 5616 5612 5608 5604 5601 5598 5599 5598 5595 5594 5589 5588 5587 5584 5583
5638 5636 5630 5624 5610 5615 5618 5615 5618 5622 5626 5628 5624 5625 5629 5629 5629 5629 5626 5627 5624 5623 5623 5619 5617 5614 5614 5612 5609 5606 5603 5599 5594 5591 5586 5587 5585 5585 5581 5578 5576 5574 5572
5627 5623 5618 5614 5612 5611 5612 5616 5615 5620 5621 5621 5620 5621 5624 5627 5628 5624 5623 5624 5622 5617 5615 5614 5612 5608 5609 5606 5603 5599 5593 5591 5588 5585 5582 5581 5580 5577 5572 5566 5563 5562 5559
5620 5614 5612 5609 5610 5611 5612 5610 5611 5615 5614 5617 5619 5621 5623 5624 5622 5621 5618 5616 5614 5613 5610 5611 5606 5601 5601 5598 5596 5593 5590 5587 5581 5577 5576 5575 5572 5567 5565 5561 5555 5551 5548
5610 5608 5607 5604 5601 5606 5610 5611 5613 5614 5618 5618 5616 5620 5620 5619 5617 5616 5612 5610 5607 5606 5603 5599 5597 5596 5593 5590 5590 5583 5581 5579 5577 5569 5566 5564 5561 5558 5557 5552 5547 5543 5540
5612 5612 5606 5605 5609 5610 5609 5610 5611 5611 5617 5618 5617 5613 5620 5616 5612 5609 5607 5605 5603 5597 5595 5592 5590 5589 5583 5580 5579 5573 5570 5568 5565 5561 5556 5553 5549 5547 5546 5541 5537 5533 5528
5609 5609 5609 5612 5612 5612 5612 5611 5615 5610 5615 5617 5612 5609 5614 5609 5606 5604 5601 5599 5597 5593 5587 5585 5583 5581 5574 5572 5568 5564 5559 5556 5554 5551 5546 5542 5537 5536 5534 5530 5526 5523 5518
5613 5611 5611 5612 5613 5614 5612 5609 5612 5609 5612 5611 5607 5608 5607 5603 5601 5602 5598 5591 5588 5584 5582 5578 5577 5572 5566 5561 5555 5551 5547 5545 5543 5539 5534 5529 5526 5524 5522 5517 5513 5509 5505
5619 5620 5620 5621 5618 5616 5613 5612 5612 5610 5609 5606 5605 5604 5604 5604 5602 5597 5590 5584 5579 5578 5576 5572 5566 5560 5556 5550 5544 5539 5536 5533 5530 5525 5521 5518 5515 5512 5507 5503 5498 5494 5491
5625 5625 5622 5619 5618 5614 5612 5608 5608 5606 5603 5603 5604 5603 5603 5602 5594 5590 5583 5579 5574 5571 5570 5563 5553 5551 5543 5537 5532 5526 5523 5519 5514 5510 5508 5506 5501 5497 5492 5486 5482 5480 5477
5626 5624 5622 5619 5616 5613 5612 5608 5603 5603 5602 5603 5601 5602 5596 5592 5587 5582 5577 5571 5568 5566 5559 5549 5543 5537 5529 5524 5520 5513 5507 5503 5499 5496 5493 5491 5486 5481 5475 5471 5468 5465 5461
5628 5627 5625 5621 5621 5618 5615 5607 5599 5602 5600 5596 5596 5593 5589 5587 5582 5576 5571 5566 5562 5554 5545 5537 5529 5521 5515 5512 5507 5498 5492 5488 5485 5480 5477 5473 5469 5463 5459 5455 5451 5447 5444
5632 5629 5626 5623 5618 5614 5613 5608 5604 5598 5595 5596 5593 5590 5586 5580 5575 5571 5568 5558 5551 5541 5531 5524 5520 5514 5504 5498 5492 5484 5477 5476 5472 5467 5463 5458 5452 5448 5443 5439 5434 5429 5425
5636 5635 5632 5628 5622 5616 5611 5606 5604 5600 5595 5591 5587 5584 5579 5575 5570 5564 5556 5547 5539 5529 5521 5515 5512 5508 5496 5486 5480 5474 5465 5459 5452 5452 5448 5443 5437 5432 5426 5421 5416 5410 5404
5638 5635 5633 5632 5627 5621 5617 5612 5609 5606 5597 5588 5583 5575 5570 5566 5560 5552 5545 5537 5528 5519 5511 5507 5502 5495 5489 5476 5468 5464 5456 5447 5440 5437 5432 5427 5422 5416 5410 5403 5396 5390 5383
5643 5641 5632 5621 5620 5616 5619 5614 5607 5599 5591 5582 5573 5565 5559 5555 5550 5541 5534 5525 5517 5514 5507 5504 5494 5483 5474 5464 5455 5449 5441 5431 5422 5414 5411 5407 5403 5397 5390 5383 5374 5366 5359
5641 5636 5625 5616 5618 5614 5614 5609 5601 5593 5583 5574 5565 5559 5552 5546 5539 5530 5524 5518 5513 5510 5503 5494 5483 5473 5463 5454 5445 5436 5428 5419 5411 5399 5390 5386 5381 5378 5370 5362 5351 5343 5337